PROFILE

 METAR AND TAF INFORMATION
ADDS - METARS form results

(2047 UTC 18 February 2019)
http://aviationweather.gov/metar/data/
 
LFRD 182030Z AUTO 23005KT 9999 FEW048 BKN060 BKN150 06/06 Q1019 NOSIG
LFRD 182000Z AUTO 21005KT 9000 FEW037 SCT074 BKN160 05/05 Q1019 NOSIG
TAF AMD LFRD 181714Z 1818/1918 24005KT 9999 SCT020 TEMPO 1818/1821 5000 SHRA BKN015TCU TEMPO 1900/1907 3000 BR BECMG 1909/1912 20007KT 

 AIRPORT MAP

 RUNWAY INFORMATION
Runway 12 Runway length 4708 ft Runway width 148 ft
Runway elevation 209 ft Runway displaced threshold 0 ft Runway heading 115
Runway 30 Runway length 4708 ft Runway width 148 ft
Runway elevation 213 ft Runway displaced threshold 476 ft Runway heading 295
Runway 17 Runway length 7218 ft Runway width 148 ft
Runway elevation 193 ft Runway displaced threshold 0 ft Runway heading 170
Runway 35 Runway length 7218 ft Runway width 148 ft
Runway elevation 198 ft Runway displaced threshold 0 ft Runway heading 350

 AIRPORT FREQUENCIES
Type ATIS Name DINARD ATI Frequency 124.575 MHZ
Type TWR Name DINARD TWR Frequency 120.15 MHZ

 AIRPORT NEAR NAVIGATION AIDS
Type VOR-DME Name Dinard Frequency 114300 KHZ